157  
ASUS43 KLSX 262210  
RWRMO  
 
WEATHER SUMMARY FOR MISSOURI  
NATIONAL WEATHER SERVICE SPRINGFIELD MO  
400 PM CST SAT NOV 26 2022  
 
NOTE: "FAIR" INDICATES FEW OR NO CLOUDS BELOW 12,000 FEET WITH NO  
SIGNIFICANT WEATHER AND/OR S TO VISIBILITY
.  
CURRENT SKY AND/OR WEATHER CONDITIONS ARE NOT AVAILABLE FOR  
CHILLICOTHE AND FARMINGTON.  
 
MOZ001>031-035>038-043-044-053-054-262300-   
..NORTHERN AND WESTERN MISSOURI
 
 
 
CITY SKY/WX TMP DP RH WIND PRES REMARKS
 
KANSAS CTY INT CLOUDY 53 40 61 NE9 29.76F  
KANSAS C DTWN CLOUDY 53 41 63 E7 29.77F  
LEE'S SUMMIT CLOUDY 50 35 56 E6 29.78F  
ST JOSEPH CLOUDY 51 39 63 SE7 29.80S  
CHILLICOTHE N/A 52 38 58 E3 29.83S  
KIRKSVILLE MOCLDY 53 30 41 CALM 29.85S  
 

 
MOZ066>068-077>081-088>096-101>105-262300-   
..SOUTHWEST MISSOURI
 
 
 
CITY SKY/WX TMP DP RH WIND PRES REMARKS
 
SPRINGFIELD LGT RAIN 50 46 86 E10 29.74F FOG  
JOPLIN RAIN 50 47 89 E6 29.70F FOG  
BRANSON CLOUDY 45 45 100 E9 29.75F FOG  
 

 
MOZ032>034-039>042-045>050-055>058-069>072-262300-   
..CENTRAL MISSOURI
 
 
 
CITY SKY/WX TMP DP RH WIND PRES REMARKS
 
COLUMBIA MOCLDY 55 39 54 SE7 29.81F  
JEFFERSON CITY MOCLDY 58 41 53 E7 29.80F  
ROLLA CLOUDY 51 42 71 E6 29.82F  
SEDALIA MOCLDY 53 39 59 SE7 29.82F  
WHITEMAN AFB CLOUDY 51 39 63 CALM 29.74F  
WARRENSBURG CLOUDY 50 36 57 SE7 29.80F  
OSAGE BEACH MOCLDY 51 45 79 SE8 N/A  
 

 
MOZ051-052-059>065-262300-   
..EAST CENTRAL MISSOURI
 
 
 
CITY SKY/WX TMP DP RH WIND PRES REMARKS
 
ST LOUIS INTL CLOUDY 49 40 71 SE9 29.90F  
SPIRIT OF STL CLOUDY 48 41 76 E8 29.86F  
ST CHARLES CLOUDY 50 42 74 SE10 29.89F  
 

 
MOZ072>076-082>087-097>100-106>115-262300-   
..SOUTH CENTRAL AND SOUTHEAST MISSOURI
 
 
 
CITY SKY/WX TMP DP RH WIND PRES REMARKS
 
CAPE GIRARDEAU CLOUDY 50 44 80 E6 29.89F  
FARMINGTON CLOUDY 48 43 82 E6 29.86F  
POPLAR BLUFF CLOUDY 57 43 59 E6 29.87F  
WEST PLAINS CLOUDY 49 44 83 E7 29.81F  
 

 
 
 
CLICK HERE TO GO TO PREVIOUS BULLETINS.

The Nexlab MO Page Main Text Page